Wetterdaten: Woche 30.11.15 - 06.12.15 (KW49)
Datum Zeit Temp. Aussen Temp. o. S. +5cm Feuchte Auss BlattFeu 1 Luftdruck Regen Sonnenschein Regendauer Solar Windben Empfang
30.11.2015 00:00 8,7 C 8,3 C 7,2 C 95 % 15 lf 1011,2 hPa 0,8 l/m 0,00 h 0,58 h 0 W/m 24,5 km/h (4 Bft) 96,59 %
30.11.2015 01:00 8,6 C 8,3 C 6,8 C 96 % 15 lf 1012,0 hPa 0,0 l/m 0,00 h 0,00 h 0 W/m 28,2 km/h (4 Bft) 95,30 %
30.11.2015 02:00 8,7 C 8,1 C 6,7 C 94 % 13 lf 1013,4 hPa 0,0 l/m 0,00 h 0,03 h 0 W/m 30,3 km/h (5 Bft) 95,58 %
30.11.2015 03:00 8,7 C 7,8 C 6,2 C 87 % 2 lf 1014,2 hPa 0,0 l/m 0,00 h 0,00 h 0 W/m 25,7 km/h (4 Bft) 95,73 %
30.11.2015 04:00 8,5 C 8,5 C 6,7 C 84 % 0 lf 1015,1 hPa 0,0 l/m 0,00 h 0,00 h 0 W/m 26,3 km/h (4 Bft) 95,38 %
30.11.2015 05:00 8,2 C 8,1 C 6,6 C 83 % 0 lf 1016,1 hPa 0,0 l/m 0,00 h 0,00 h 0 W/m 24,3 km/h (4 Bft) 97,86 %
30.11.2015 06:00 8,1 C 8,1 C 6,5 C 80 % 0 lf 1017,2 hPa 0,0 l/m 0,00 h 0,00 h 0 W/m 19,2 km/h (3 Bft) 95,03 %
30.11.2015 07:00 7,7 C 7,6 C 5,9 C 80 % 0 lf 1018,1 hPa 0,0 l/m 0,00 h 0,00 h 0 W/m 13,7 km/h (3 Bft) 94,95 %
30.11.2015 08:00 7,3 C 7,2 C 5,7 C 83 % 0 lf 1018,5 hPa 0,0 l/m 0,00 h 0,00 h 9 W/m 10,8 km/h (2 Bft) 97,36 %
30.11.2015 09:00 7,3 C 7,8 C 6,3 C 84 % 0 lf 1018,5 hPa 0,0 l/m 0,00 h 0,03 h 32 W/m 12,2 km/h (2 Bft) 96,52 %
30.11.2015 10:00 7,8 C 7,6 C 5,9 C 85 % 11 lf 1018,1 hPa 0,2 l/m 0,00 h 0,90 h 36 W/m 15,8 km/h (3 Bft) 96,23 %
30.11.2015 11:00 7,8 C 7,2 C 6,1 C 90 % 15 lf 1017,3 hPa 0,8 l/m 0,00 h 0,93 h 45 W/m 10,7 km/h (2 Bft) 94,30 %
30.11.2015 12:00 8,3 C 8,2 C 7,0 C 95 % 15 lf 1015,6 hPa 1,6 l/m 0,00 h 0,97 h 39 W/m 16,2 km/h (3 Bft) 98,27 %
30.11.2015 13:00 9,5 C 9,5 C 8,1 C 97 % 15 lf 1014,5 hPa 2,2 l/m 0,00 h 1,00 h 20 W/m 34,9 km/h (5 Bft) 95,72 %
30.11.2015 14:00 10,1 C 9,8 C 8,3 C 97 % 15 lf 1013,7 hPa 0,8 l/m 0,00 h 1,00 h 23 W/m 45,6 km/h (6 Bft) 95,30 %
30.11.2015 15:00 10,0 C 9,4 C 8,3 C 96 % 15 lf 1012,8 hPa 0,4 l/m 0,00 h 1,00 h 15 W/m 43,8 km/h (6 Bft) 95,06 %
30.11.2015 16:00 9,9 C 9,4 C 8,3 C 96 % 15 lf 1012,0 hPa 1,0 l/m 0,00 h 1,00 h 5 W/m 41,0 km/h (6 Bft) 95,94 %
30.11.2015 17:00 10,4 C 9,7 C 8,3 C 94 % 15 lf 1011,2 hPa 0,4 l/m 0,00 h 1,00 h 0 W/m 55,0 km/h (7 Bft) 95,15 %
30.11.2015 18:00 10,2 C 9,4 C 8,3 C 94 % 15 lf 1011,3 hPa 2,2 l/m 0,00 h 1,00 h 0 W/m 49,9 km/h (6 Bft) 96,95 %
30.11.2015 19:00 10,1 C 9,6 C 8,3 C 96 % 15 lf 1011,1 hPa 1,8 l/m 0,00 h 1,00 h 0 W/m 52,2 km/h (7 Bft) 93,95 %
30.11.2015 20:00 10,2 C 10,0 C 8,8 C 96 % 15 lf 1011,3 hPa 1,4 l/m 0,00 h 1,00 h 0 W/m 54,4 km/h (7 Bft) 96,35 %
30.11.2015 21:00 10,3 C 10,0 C 8,9 C 97 % 15 lf 1012,1 hPa 0,8 l/m 0,00 h 1,00 h 0 W/m 46,3 km/h (6 Bft) 97,86 %
30.11.2015 22:00 10,3 C 10,0 C 8,9 C 97 % 15 lf 1012,7 hPa 1,0 l/m 0,00 h 1,00 h 0 W/m 47,4 km/h (6 Bft) 93,96 %
30.11.2015 23:00 10,5 C 10,3 C 8,9 C 98 % 15 lf 1013,4 hPa 1,2 l/m 0,00 h 1,02 h 0 W/m 41,3 km/h (6 Bft) 95,59 %
01.12.2015 00:00 10,7 C 10,6 C 9,4 C 98 % 15 lf 1014,2 hPa 1,2 l/m 0,00 h 0,97 h 0 W/m 35,3 km/h (5 Bft) 97,09 %
01.12.2015 01:00 10,8 C 10,7 C 9,4 C 98 % 15 lf 1015,1 hPa 1,4 l/m 0,00 h 1,00 h 0 W/m 26,6 km/h (4 Bft) 96,37 %
01.12.2015 02:00 10,8 C 10,8 C 9,3 C 98 % 15 lf 1016,5 hPa 1,0 l/m 0,00 h 0,60 h 0 W/m 22,7 km/h (4 Bft) 95,66 %
01.12.2015 03:00 10,0 C 9,5 C 8,5 C 98 % 15 lf 1017,5 hPa 0,4 l/m 0,00 h 0,70 h 0 W/m 19,7 km/h (3 Bft) 96,43 %
01.12.2015 04:00 8,6 C 8,3 C 7,2 C 98 % 15 lf 1018,3 hPa 0,2 l/m 0,00 h 0,70 h 0 W/m 13,3 km/h (3 Bft) 94,95 %
01.12.2015 05:00 8,3 C 8,1 C 6,9 C 98 % 15 lf 1019,7 hPa 0,8 l/m 0,00 h 0,97 h 0 W/m 9,9 km/h (2 Bft) 97,87 %
01.12.2015 06:00 7,7 C 7,5 C 6,7 C 98 % 15 lf 1020,8 hPa 0,4 l/m 0,00 h 0,93 h 0 W/m 2,2 km/h (1 Bft) 95,51 %
01.12.2015 07:00 7,5 C 7,2 C 6,6 C 98 % 15 lf 1021,3 hPa 0,2 l/m 0,00 h 0,87 h 0 W/m 4,7 km/h (1 Bft) 94,10 %
01.12.2015 08:00 7,4 C 7,2 C 6,1 C 98 % 15 lf 1021,9 hPa 1,0 l/m 0,00 h 1,00 h 7 W/m 3,6 km/h (1 Bft) 97,58 %
01.12.2015 09:00 7,3 C 7,5 C 6,6 C 98 % 15 lf 1022,4 hPa 0,6 l/m 0,00 h 0,80 h 20 W/m 3,6 km/h (1 Bft) 97,01 %
01.12.2015 10:00 7,6 C 7,9 C 6,8 C 98 % 15 lf 1023,0 hPa 0,2 l/m 0,00 h 0,37 h 45 W/m 4,7 km/h (1 Bft) 94,08 %
01.12.2015 11:00 7,8 C 8,1 C 7,2 C 99 % 15 lf 1023,0 hPa 0,2 l/m 0,00 h 0,30 h 63 W/m 5,7 km/h (1 Bft) 96,20 %
01.12.2015 12:00 8,0 C 8,1 C 7,2 C 99 % 15 lf 1023,0 hPa 1,2 l/m 0,00 h 1,00 h 48 W/m 9,7 km/h (2 Bft) 96,92 %
01.12.2015 13:00 8,2 C 8,3 C 7,2 C 99 % 15 lf 1023,2 hPa 0,6 l/m 0,00 h 0,97 h 39 W/m 6,0 km/h (2 Bft) 94,61 %
01.12.2015 14:00 8,3 C 8,3 C 7,2 C 99 % 15 lf 1023,1 hPa 0,2 l/m 0,00 h 0,07 h 22 W/m 7,4 km/h (2 Bft) 97,23 %
01.12.2015 15:00 8,4 C 8,4 C 7,3 C 99 % 15 lf 1023,0 hPa 0,0 l/m 0,00 h 0,17 h 9 W/m 7,3 km/h (2 Bft) 94,80 %
01.12.2015 16:00 9,3 C 10,0 C 8,7 C 99 % 15 lf 1023,3 hPa 0,2 l/m 0,00 h 0,37 h 0 W/m 12,2 km/h (2 Bft) 96,53 %
01.12.2015 17:00 11,4 C 11,7 C 10,0 C 100 % 15 lf 1023,6 hPa 0,2 l/m 0,00 h 0,17 h 0 W/m 23,8 km/h (4 Bft) 98,08 %
01.12.2015 18:00 11,5 C 11,7 C 10,0 C 99 % 15 lf 1024,2 hPa 0,0 l/m 0,00 h 0,27 h 0 W/m 21,3 km/h (4 Bft) 94,59 %
01.12.2015 19:00 11,4 C 11,2 C 10,0 C 99 % 15 lf 1024,7 hPa 0,0 l/m 0,00 h 0,03 h 0 W/m 20,2 km/h (4 Bft) 94,73 %
01.12.2015 20:00 11,2 C 11,1 C 9,5 C 99 % 15 lf 1024,9 hPa 0,0 l/m 0,00 h 0,00 h 0 W/m 22,9 km/h (4 Bft) 98,93 %
01.12.2015 21:00 11,0 C 10,9 C 9,3 C 99 % 10 lf 1025,2 hPa 0,0 l/m 0,00 h 0,00 h 0 W/m 22,4 km/h (4 Bft) 95,23 %
01.12.2015 22:00 11,1 C 10,8 C 9,2 C 97 % 1 lf 1025,3 hPa 0,0 l/m 0,00 h 0,00 h 0 W/m 24,1 km/h (4 Bft) 95,16 %
01.12.2015 23:00 11,1 C 10,7 C 9,4 C 95 % 0 lf 1025,3 hPa 0,0 l/m 0,00 h 0,00 h 0 W/m 25,6 km/h (4 Bft) 96,94 %
02.12.2015 00:00 11,1 C 11,4 C 9,4 C 91 % 0 lf 1025,5 hPa 0,0 l/m 0,00 h 0,00 h 0 W/m 24,7 km/h (4 Bft) 95,35 %
02.12.2015 01:00 11,1 C 11,3 C 9,4 C 89 % 0 lf 1025,9 hPa 0,0 l/m 0,00 h 0,00 h 0 W/m 24,8 km/h (4 Bft) 97,22 %
02.12.2015 02:00 11,1 C 11,2 C 9,4 C 86 % 0 lf 1026,2 hPa 0,0 l/m 0,00 h 0,00 h 0 W/m 19,6 km/h (3 Bft) 95,29 %
02.12.2015 03:00 11,0 C 11,1 C 9,4 C 89 % 0 lf 1026,1 hPa 0,0 l/m 0,00 h 0,00 h 0 W/m 16,2 km/h (3 Bft) 94,80 %
02.12.2015 04:00 10,7 C 10,7 C 9,2 C 89 % 0 lf 1025,9 hPa 0,0 l/m 0,00 h 0,03 h 0 W/m 19,0 km/h (3 Bft) 97,00 %
02.12.2015 05:00 10,4 C 10,6 C 8,9 C 89 % 0 lf 1025,7 hPa 0,0 l/m 0,00 h 0,00 h 0 W/m 13,3 km/h (3 Bft) 97,86 %
02.12.2015 06:00 10,3 C 10,6 C 8,9 C 87 % 0 lf 1026,0 hPa 0,0 l/m 0,00 h 0,00 h 0 W/m 16,6 km/h (3 Bft) 91,96 %
02.12.2015 07:00 10,3 C 10,6 C 8,9 C 84 % 0 lf 1026,2 hPa 0,0 l/m 0,00 h 0,00 h 0 W/m 16,6 km/h (3 Bft) 98,51 %
02.12.2015 08:00 10,3 C 10,6 C 8,9 C 82 % 0 lf 1026,3 hPa 0,0 l/m 0,00 h 0,00 h 8 W/m 14,9 km/h (3 Bft) 97,58 %
02.12.2015 09:00 10,3 C 10,6 C 8,9 C 80 % 0 lf 1026,6 hPa 0,0 l/m 0,00 h 0,00 h 19 W/m 16,4 km/h (3 Bft) 93,73 %
02.12.2015 10:00 10,4 C 10,9 C 9,1 C 80 % 0 lf 1026,9 hPa 0,0 l/m 0,00 h 0,00 h 41 W/m 16,7 km/h (3 Bft) 95,59 %
02.12.2015 11:00 10,6 C 11,2 C 9,4 C 79 % 0 lf 1027,0 hPa 0,0 l/m 0,00 h 0,00 h 56 W/m 17,4 km/h (3 Bft) 98,35 %
02.12.2015 12:00 10,9 C 11,7 C 10,0 C 78 % 0 lf 1026,7 hPa 0,0 l/m 0,00 h 0,00 h 82 W/m 18,8 km/h (3 Bft) 93,74 %
02.12.2015 13:00 11,2 C 12,0 C 10,2 C 77 % 0 lf 1026,5 hPa 0,0 l/m 0,13 h 0,00 h 96 W/m 17,3 km/h (3 Bft) 97,22 %
02.12.2015 14:00 11,5 C 12,5 C 10,2 C 76 % 0 lf 1026,4 hPa 0,0 l/m 0,30 h 0,00 h 100 W/m 19,5 km/h (3 Bft) 95,79 %
02.12.2015 15:00 11,3 C 11,7 C 9,3 C 76 % 0 lf 1026,2 hPa 0,0 l/m 0,40 h 0,00 h 49 W/m 16,6 km/h (3 Bft) 95,52 %
02.12.2015 16:00 10,6 C 10,4 C 8,6 C 78 % 0 lf 1026,4 hPa 0,0 l/m 0,13 h 0,00 h 12 W/m 15,9 km/h (3 Bft) 97,05 %
02.12.2015 17:00 9,9 C 9,6 C 7,7 C 80 % 0 lf 1026,6 hPa 0,0 l/m 0,00 h 0,00 h 0 W/m 16,9 km/h (3 Bft) 95,64 %
02.12.2015 18:00 9,1 C 8,8 C 7,1 C 81 % 0 lf 1026,9 hPa 0,0 l/m 0,00 h 0,00 h 0 W/m 19,6 km/h (3 Bft) 95,32 %
02.12.2015 19:00 8,5 C 8,2 C 6,8 C 83 % 0 lf 1027,2 hPa 0,0 l/m 0,00 h 0,00 h 0 W/m 17,7 km/h (3 Bft) 98,36 %
02.12.2015 20:00 8,5 C 8,9 C 7,3 C 83 % 0 lf 1027,1 hPa 0,0 l/m 0,00 h 0,00 h 0 W/m 15,3 km/h (3 Bft) 95,42 %
02.12.2015 21:00 9,0 C 9,3 C 7,8 C 81 % 0 lf 1027,0 hPa 0,0 l/m 0,00 h 0,00 h 0 W/m 17,6 km/h (3 Bft) 94,52 %
02.12.2015 22:00 9,3 C 9,5 C 7,8 C 80 % 0 lf 1027,3 hPa 0,0 l/m 0,00 h 0,00 h 0 W/m 12,6 km/h (3 Bft) 96,89 %
02.12.2015 23:00 9,5 C 9,6 C 7,9 C 79 % 0 lf 1027,4 hPa 0,0 l/m 0,00 h 0,00 h 0 W/m 15,0 km/h (3 Bft) 95,88 %
03.12.2015 00:00 9,4 C 9,4 C 7,8 C 79 % 0 lf 1027,4 hPa 0,0 l/m 0,00 h 0,00 h 0 W/m 15,4 km/h (3 Bft) 92,93 %
03.12.2015 01:00 9,4 C 9,4 C 7,8 C 79 % 0 lf 1027,4 hPa 0,0 l/m 0,00 h 0,00 h 0 W/m 14,4 km/h (3 Bft) 96,08 %
03.12.2015 02:00 9,4 C 9,4 C 7,8 C 79 % 0 lf 1027,3 hPa 0,0 l/m 0,00 h 0,00 h 0 W/m 13,1 km/h (3 Bft) 94,74 %
03.12.2015 03:00 9,2 C 9,4 C 7,8 C 79 % 0 lf 1027,5 hPa 0,0 l/m 0,00 h 0,00 h 0 W/m 11,9 km/h (2 Bft) 97,02 %
03.12.2015 04:00 9,3 C 9,4 C 7,8 C 79 % 0 lf 1027,4 hPa 0,0 l/m 0,00 h 0,00 h 0 W/m 16,3 km/h (3 Bft) 97,65 %
03.12.2015 05:00 9,3 C 9,4 C 7,8 C 79 % 0 lf 1027,3 hPa 0,0 l/m 0,00 h 0,00 h 0 W/m 15,8 km/h (3 Bft) 92,53 %
03.12.2015 06:00 9,2 C 9,4 C 7,8 C 79 % 0 lf 1027,3 hPa 0,0 l/m 0,00 h 0,00 h 0 W/m 17,2 km/h (3 Bft) 97,96 %
03.12.2015 07:00 9,1 C 9,3 C 7,6 C 80 % 0 lf 1027,3 hPa 0,0 l/m 0,00 h 0,00 h 0 W/m 13,5 km/h (3 Bft) 97,09 %
03.12.2015 08:00 8,8 C 8,7 C 7,0 C 80 % 0 lf 1027,7 hPa 0,0 l/m 0,07 h 0,00 h 15 W/m 13,0 km/h (3 Bft) 94,45 %
03.12.2015 09:00 8,6 C 9,1 C 7,2 C 81 % 0 lf 1028,0 hPa 0,0 l/m 0,53 h 0,00 h 68 W/m 10,7 km/h (2 Bft) 96,08 %
03.12.2015 10:00 9,1 C 11,3 C 7,9 C 81 % 0 lf 1027,8 hPa 0,0 l/m 1,00 h 0,00 h 163 W/m 13,7 km/h (3 Bft) 98,35 %
03.12.2015 11:00 10,8 C 15,4 C 9,1 C 75 % 0 lf 1027,8 hPa 0,0 l/m 1,00 h 0,00 h 223 W/m 17,6 km/h (3 Bft) 94,47 %
03.12.2015 12:00 11,9 C 16,2 C 10,0 C 73 % 0 lf 1027,4 hPa 0,0 l/m 1,00 h 0,00 h 236 W/m 17,6 km/h (3 Bft) 95,29 %
03.12.2015 13:00 12,3 C 16,7 C 10,0 C 72 % 0 lf 1026,9 hPa 0,0 l/m 1,00 h 0,00 h 190 W/m 16,2 km/h (3 Bft) 97,31 %
03.12.2015 14:00 12,4 C 14,1 C 10,2 C 72 % 0 lf 1026,3 hPa 0,0 l/m 0,87 h 0,00 h 120 W/m 15,6 km/h (3 Bft) 97,16 %
03.12.2015 15:00 11,2 C 11,1 C 9,1 C 78 % 0 lf 1025,6 hPa 0,0 l/m 0,07 h 0,00 h 50 W/m 9,8 km/h (2 Bft) 96,30 %
03.12.2015 16:00 10,0 C 9,5 C 7,3 C 82 % 0 lf 1025,2 hPa 0,0 l/m 0,00 h 0,00 h 11 W/m 9,7 km/h (2 Bft) 96,20 %
03.12.2015 17:00 9,0 C 8,7 C 7,0 C 83 % 0 lf 1024,6 hPa 0,0 l/m 0,00 h 0,00 h 0 W/m 13,5 km/h (3 Bft) 95,80 %
03.12.2015 18:00 8,6 C 8,5 C 6,8 C 82 % 0 lf 1024,7 hPa 0,0 l/m 0,00 h 0,00 h 0 W/m 13,7 km/h (3 Bft) 94,83 %
03.12.2015 19:00 8,2 C 8,3 C 6,7 C 82 % 0 lf 1024,1 hPa 0,0 l/m 0,00 h 0,00 h 0 W/m 15,0 km/h (3 Bft) 95,45 %
03.12.2015 20:00 7,9 C 7,7 C 6,1 C 82 % 0 lf 1023,3 hPa 0,0 l/m 0,00 h 0,00 h 0 W/m 13,3 km/h (3 Bft) 98,45 %
03.12.2015 21:00 7,0 C 6,7 C 5,0 C 85 % 0 lf 1022,6 hPa 0,0 l/m 0,00 h 0,00 h 0 W/m 10,6 km/h (2 Bft) 93,30 %
03.12.2015 22:00 6,5 C 6,8 C 5,2 C 88 % 0 lf 1021,8 hPa 0,0 l/m 0,00 h 0,00 h 0 W/m 13,3 km/h (3 Bft) 96,16 %
03.12.2015 23:00 7,0 C 7,2 C 5,8 C 88 % 0 lf 1021,0 hPa 0,0 l/m 0,00 h 0,00 h 0 W/m 18,9 km/h (3 Bft) 98,30 %
04.12.2015 00:00 7,3 C 7,2 C 6,1 C 86 % 0 lf 1020,4 hPa 0,0 l/m 0,00 h 0,00 h 0 W/m 18,0 km/h (3 Bft) 94,17 %
04.12.2015 01:00 7,2 C 7,2 C 6,0 C 87 % 0 lf 1019,7 hPa 0,0 l/m 0,00 h 0,00 h 0 W/m 15,7 km/h (3 Bft) 95,88 %
04.12.2015 02:00 7,1 C 7,2 C 5,8 C 87 % 0 lf 1019,1 hPa 0,0 l/m 0,00 h 0,00 h 0 W/m 14,0 km/h (3 Bft) 96,23 %
04.12.2015 03:00 7,4 C 8,1 C 6,4 C 87 % 0 lf 1018,7 hPa 0,0 l/m 0,00 h 0,00 h 0 W/m 14,5 km/h (3 Bft) 95,23 %
04.12.2015 04:00 9,8 C 10,3 C 8,4 C 83 % 5 lf 1018,7 hPa 0,6 l/m 0,00 h 0,50 h 0 W/m 27,5 km/h (4 Bft) 97,94 %
04.12.2015 05:00 9,4 C 8,2 C 6,9 C 89 % 15 lf 1019,5 hPa 1,6 l/m 0,00 h 1,00 h 0 W/m 31,2 km/h (5 Bft) 95,96 %
04.12.2015 06:00 8,7 C 8,1 C 6,9 C 94 % 15 lf 1019,8 hPa 1,0 l/m 0,00 h 1,00 h 0 W/m 26,7 km/h (4 Bft) 93,32 %
04.12.2015 07:00 8,9 C 8,5 C 7,2 C 95 % 15 lf 1020,8 hPa 1,8 l/m 0,00 h 1,00 h 0 W/m 25,5 km/h (4 Bft) 98,40 %
04.12.2015 08:00 9,1 C 8,9 C 7,7 C 96 % 15 lf 1022,3 hPa 0,2 l/m 0,00 h 0,50 h 0 W/m 27,4 km/h (4 Bft) 96,13 %
04.12.2015 09:00 9,3 C 9,1 C 7,8 C 97 % 15 lf 1024,0 hPa 0,0 l/m 0,00 h 0,07 h 14 W/m 18,7 km/h (3 Bft) 94,14 %
04.12.2015 10:00 9,2 C 9,2 C 7,8 C 97 % 15 lf 1025,5 hPa 0,0 l/m 0,07 h 0,03 h 47 W/m 14,7 km/h (3 Bft) 96,24 %
04.12.2015 11:00 9,1 C 10,1 C 7,7 C 96 % 7 lf 1026,9 hPa 0,0 l/m 0,20 h 0,00 h 121 W/m 16,6 km/h (3 Bft) 96,23 %
04.12.2015 12:00 9,8 C 13,2 C 8,7 C 90 % 0 lf 1027,5 hPa 0,0 l/m 0,87 h 0,00 h 237 W/m 19,8 km/h (3 Bft) 95,16 %
04.12.2015 13:00 10,2 C 15,4 C 8,6 C 83 % 0 lf 1028,4 hPa 0,0 l/m 0,87 h 0,00 h 200 W/m 21,6 km/h (4 Bft) 97,13 %
04.12.2015 14:00 10,1 C 12,7 C 8,2 C 80 % 0 lf 1028,9 hPa 0,2 l/m 0,97 h 0,00 h 124 W/m 22,7 km/h (4 Bft) 96,38 %
04.12.2015 15:00 9,5 C 9,7 C 7,6 C 81 % 0 lf 1029,3 hPa 0,0 l/m 0,00 h 0,00 h 38 W/m 20,1 km/h (4 Bft) 95,52 %
04.12.2015 16:00 8,7 C 8,3 C 6,6 C 83 % 0 lf 1029,9 hPa 0,0 l/m 0,00 h 0,00 h 10 W/m 16,0 km/h (3 Bft) 95,97 %
04.12.2015 17:00 8,0 C 7,7 C 6,1 C 85 % 0 lf 1030,2 hPa 0,0 l/m 0,00 h 0,00 h 0 W/m 19,4 km/h (3 Bft) 95,76 %
04.12.2015 18:00 7,5 C 7,2 C 5,7 C 86 % 0 lf 1030,8 hPa 0,0 l/m 0,00 h 0,00 h 0 W/m 18,6 km/h (3 Bft) 95,77 %
04.12.2015 19:00 7,1 C 7,1 C 5,5 C 87 % 0 lf 1031,1 hPa 0,0 l/m 0,00 h 0,00 h 0 W/m 17,6 km/h (3 Bft) 98,01 %
04.12.2015 20:00 6,9 C 6,9 C 5,2 C 88 % 0 lf 1031,2 hPa 0,0 l/m 0,00 h 0,00 h 0 W/m 20,7 km/h (4 Bft) 93,01 %
04.12.2015 21:00 6,9 C 6,8 C 5,3 C 88 % 0 lf 1031,1 hPa 0,0 l/m 0,00 h 0,00 h 0 W/m 17,9 km/h (3 Bft) 97,01 %
04.12.2015 22:00 6,7 C 6,7 C 5,0 C 89 % 0 lf 1030,9 hPa 0,0 l/m 0,00 h 0,00 h 0 W/m 18,5 km/h (3 Bft) 97,29 %
04.12.2015 23:00 6,6 C 6,7 C 5,0 C 89 % 0 lf 1030,9 hPa 0,0 l/m 0,00 h 0,00 h 0 W/m 19,7 km/h (3 Bft) 94,78 %
05.12.2015 00:00 6,4 C 6,3 C 4,6 C 89 % 0 lf 1030,8 hPa 0,0 l/m 0,00 h 0,00 h 0 W/m 14,4 km/h (3 Bft) 95,11 %
05.12.2015 01:00 6,2 C 6,2 C 4,5 C 89 % 0 lf 1030,6 hPa 0,0 l/m 0,00 h 0,00 h 0 W/m 16,9 km/h (3 Bft) 97,78 %
05.12.2015 02:00 6,3 C 6,1 C 4,7 C 90 % 0 lf 1029,7 hPa 0,0 l/m 0,00 h 0,00 h 0 W/m 18,2 km/h (3 Bft) 94,18 %
05.12.2015 03:00 6,4 C 6,6 C 4,9 C 89 % 0 lf 1028,6 hPa 0,0 l/m 0,00 h 0,00 h 0 W/m 17,1 km/h (3 Bft) 98,36 %
05.12.2015 04:00 5,9 C 5,9 C 4,2 C 90 % 0 lf 1028,5 hPa 0,0 l/m 0,00 h 0,00 h 0 W/m 13,8 km/h (3 Bft) 94,79 %
05.12.2015 05:00 5,8 C 6,1 C 4,4 C 91 % 0 lf 1028,4 hPa 0,0 l/m 0,00 h 0,00 h 0 W/m 14,8 km/h (3 Bft) 94,32 %
05.12.2015 06:00 6,1 C 6,6 C 4,9 C 90 % 0 lf 1028,0 hPa 0,0 l/m 0,00 h 0,00 h 0 W/m 20,6 km/h (4 Bft) 97,77 %
05.12.2015 07:00 6,4 C 6,5 C 4,8 C 88 % 0 lf 1027,7 hPa 0,0 l/m 0,00 h 0,00 h 0 W/m 20,7 km/h (4 Bft) 96,11 %
05.12.2015 08:00 6,1 C 6,2 C 4,5 C 88 % 0 lf 1027,7 hPa 0,0 l/m 0,37 h 0,00 h 18 W/m 17,4 km/h (3 Bft) 94,69 %
05.12.2015 09:00 6,7 C 7,4 C 5,7 C 87 % 0 lf 1027,4 hPa 0,0 l/m 0,10 h 0,00 h 51 W/m 25,1 km/h (4 Bft) 96,43 %
05.12.2015 10:00 7,3 C 8,3 C 6,4 C 83 % 0 lf 1027,1 hPa 0,0 l/m 0,40 h 0,00 h 104 W/m 19,5 km/h (3 Bft) 96,53 %
05.12.2015 11:00 7,9 C 9,2 C 7,1 C 77 % 0 lf 1026,6 hPa 0,0 l/m 0,37 h 0,00 h 131 W/m 25,0 km/h (4 Bft) 94,36 %
05.12.2015 12:00 8,8 C 9,7 C 7,8 C 71 % 0 lf 1025,8 hPa 0,0 l/m 0,27 h 0,00 h 115 W/m 28,9 km/h (5 Bft) 95,70 %
05.12.2015 13:00 9,2 C 10,0 C 7,8 C 67 % 0 lf 1025,2 hPa 0,0 l/m 0,00 h 0,00 h 108 W/m 27,1 km/h (4 Bft) 95,28 %
05.12.2015 14:00 9,2 C 9,7 C 7,6 C 64 % 0 lf 1024,6 hPa 0,0 l/m 0,00 h 0,00 h 80 W/m 27,3 km/h (4 Bft) 96,58 %
05.12.2015 15:00 9,0 C 9,2 C 7,1 C 62 % 0 lf 1024,2 hPa 0,0 l/m 0,00 h 0,00 h 39 W/m 25,7 km/h (4 Bft) 96,24 %
05.12.2015 16:00 8,4 C 8,3 C 6,2 C 63 % 0 lf 1023,8 hPa 0,0 l/m 0,00 h 0,00 h 10 W/m 19,3 km/h (3 Bft) 94,60 %
05.12.2015 17:00 8,3 C 8,4 C 6,5 C 63 % 0 lf 1023,2 hPa 0,0 l/m 0,00 h 0,00 h 0 W/m 27,8 km/h (4 Bft) 96,35 %
05.12.2015 18:00 8,5 C 8,5 C 6,5 C 60 % 0 lf 1023,1 hPa 0,0 l/m 0,00 h 0,00 h 0 W/m 21,6 km/h (4 Bft) 97,04 %
05.12.2015 19:00 7,5 C 6,8 C 4,8 C 66 % 0 lf 1023,2 hPa 0,0 l/m 0,00 h 0,00 h 0 W/m 11,5 km/h (2 Bft) 95,66 %
05.12.2015 20:00 5,6 C 4,9 C 3,2 C 76 % 0 lf 1023,2 hPa 0,0 l/m 0,00 h 0,00 h 7 W/m 11,7 km/h (2 Bft) 95,54 %
05.12.2015 21:00 4,3 C 4,2 C 2,5 C 83 % 0 lf 1023,2 hPa 0,0 l/m 0,00 h 0,00 h 0 W/m 11,5 km/h (2 Bft) 95,95 %
05.12.2015 22:00 4,6 C 5,2 C 3,2 C 82 % 0 lf 1022,6 hPa 0,0 l/m 0,00 h 0,00 h 0 W/m 15,3 km/h (3 Bft) 97,80 %
05.12.2015 23:00 5,7 C 6,1 C 4,2 C 76 % 0 lf 1021,7 hPa 0,0 l/m 0,00 h 0,00 h 0 W/m 20,0 km/h (4 Bft) 94,56 %
06.12.2015 00:00 6,3 C 6,5 C 4,4 C 75 % 0 lf 1021,3 hPa 0,0 l/m 0,00 h 0,00 h 0 W/m 19,1 km/h (3 Bft) 92,13 %
06.12.2015 01:00 6,0 C 5,7 C 3,9 C 75 % 0 lf 1021,0 hPa 0,0 l/m 0,00 h 0,00 h 0 W/m 14,6 km/h (3 Bft) 96,37 %
06.12.2015 02:00 5,0 C 4,9 C 3,1 C 81 % 0 lf 1020,8 hPa 0,0 l/m 0,00 h 0,00 h 0 W/m 12,0 km/h (2 Bft) 95,94 %
06.12.2015 03:00 4,4 C 4,4 C 2,5 C 83 % 0 lf 1020,7 hPa 0,0 l/m 0,00 h 0,00 h 0 W/m 9,9 km/h (2 Bft) 97,24 %
06.12.2015 04:00 4,1 C 4,2 C 1,8 C 84 % 0 lf 1020,9 hPa 0,0 l/m 0,00 h 0,00 h 0 W/m 8,8 km/h (2 Bft) 95,03 %
06.12.2015 05:00 3,7 C 3,4 C 1,5 C 86 % 0 lf 1021,2 hPa 0,0 l/m 0,00 h 0,00 h 0 W/m 7,3 km/h (2 Bft) 93,29 %
06.12.2015 06:00 5,1 C 6,4 C 4,6 C 91 % 0 lf 1021,3 hPa 0,0 l/m 0,00 h 0,00 h 0 W/m 14,7 km/h (3 Bft) 98,58 %
06.12.2015 07:00 7,0 C 7,7 C 6,1 C 90 % 0 lf 1021,0 hPa 0,0 l/m 0,00 h 0,00 h 0 W/m 21,0 km/h (4 Bft) 95,12 %
06.12.2015 08:00 8,2 C 8,5 C 7,0 C 90 % 0 lf 1021,3 hPa 0,0 l/m 0,00 h 0,00 h 6 W/m 23,1 km/h (4 Bft) 94,45 %
06.12.2015 09:00 8,8 C 9,3 C 7,6 C 88 % 0 lf 1021,8 hPa 0,0 l/m 0,00 h 0,00 h 30 W/m 25,9 km/h (4 Bft) 97,73 %
06.12.2015 10:00 9,3 C 9,7 C 8,1 C 87 % 0 lf 1022,1 hPa 0,0 l/m 0,00 h 0,00 h 48 W/m 28,7 km/h (4 Bft) 95,60 %
06.12.2015 11:00 10,0 C 11,8 C 9,3 C 83 % 0 lf 1021,6 hPa 0,0 l/m 0,57 h 0,00 h 155 W/m 30,8 km/h (5 Bft) 96,23 %
06.12.2015 12:00 11,2 C 12,6 C 10,1 C 76 % 0 lf 1021,5 hPa 0,0 l/m 0,37 h 0,00 h 146 W/m 31,3 km/h (5 Bft) 96,45 %
06.12.2015 13:00 11,7 C 13,0 C 10,7 C 76 % 0 lf 1021,4 hPa 0,0 l/m 0,33 h 0,00 h 122 W/m 25,2 km/h (4 Bft) 94,90 %
06.12.2015 14:00 12,2 C 12,8 C 10,7 C 74 % 0 lf 1021,6 hPa 0,0 l/m 0,00 h 0,00 h 65 W/m 30,0 km/h (5 Bft) 97,25 %
06.12.2015 15:00 12,1 C 12,3 C 10,5 C 77 % 0 lf 1022,0 hPa 0,0 l/m 0,00 h 0,07 h 25 W/m 28,6 km/h (4 Bft) 95,95 %
06.12.2015 16:00 11,8 C 12,0 C 10,0 C 78 % 0 lf 1022,6 hPa 0,0 l/m 0,00 h 0,00 h 7 W/m 25,7 km/h (4 Bft) 94,49 %
06.12.2015 17:00 11,7 C 11,7 C 10,0 C 80 % 0 lf 1022,9 hPa 0,0 l/m 0,00 h 0,00 h 0 W/m 25,4 km/h (4 Bft) 97,17 %
06.12.2015 18:00 11,7 C 11,7 C 10,0 C 81 % 0 lf 1023,2 hPa 0,0 l/m 0,00 h 0,00 h 0 W/m 26,2 km/h (4 Bft) 97,86 %
06.12.2015 19:00 11,6 C 11,7 C 10,0 C 84 % 0 lf 1023,8 hPa 0,0 l/m 0,00 h 0,00 h 0 W/m 24,1 km/h (4 Bft) 92,34 %
06.12.2015 20:00 11,7 C 11,8 C 10,0 C 85 % 0 lf 1024,4 hPa 0,0 l/m 0,00 h 0,00 h 0 W/m 21,3 km/h (4 Bft) 97,35 %
06.12.2015 21:00 11,7 C 11,4 C 9,5 C 87 % 10 lf 1025,0 hPa 0,0 l/m 0,00 h 0,30 h 0 W/m 20,8 km/h (4 Bft) 98,04 %
06.12.2015 22:00 11,0 C 10,3 C 8,9 C 92 % 15 lf 1025,9 hPa 0,2 l/m 0,00 h 0,77 h 0 W/m 15,9 km/h (3 Bft) 94,05 %
06.12.2015 23:00 10,4 C 9,9 C 8,7 C 94 % 15 lf 1026,4 hPa 0,4 l/m 0,00 h 0,67 h 0 W/m 13,4 km/h (3 Bft) 96,57 %
Min-Datum _ 06.12.15 06.12.15 06.12.15 05.12.15 30.11.15 30.11.15 - - - - 01.12.15 06.12.15
_ Min-Zeit 05:38 05:26 05:24 18:10 03:34 00:00 - - - - 06:16 00:02
Minimum _ 3,4 C 2,2 C 0,6 C 60 % 0 lf 1010,9 hPa - - - - 0,0 km/h (0 Bft) 5,00 %
Max-Datum _ 03.12.15 03.12.15 06.12.15 01.12.15 30.11.15 04.12.15 30.11.15 02.12.15 30.11.15 04.12.15 30.11.15 30.11.15
_ Max-Zeit 14:08 13:50 13:40 16:54 00:00 20:52 13:02 13:52 00:00 13:02 17:34 00:06
Maximum _ 12,7 C 20,0 C 11,1 C 100 % 15 lf 1031,3 hPa 2,2 l/m 0,03 h 0,03 h 342 W/m 86,8 km/h
W-SW (9 Bft)
100,00 %
Durchschnitt _ 8,9 C 9,1 C 7,4 C 86 % 4 lf 1023,2 hPa #32,6 l/m #12:14 h #32:42 h 66 W/m 19,9 km/h (4 Bft) 95,95 %
© 2015 W. Hausmann